Flag for Niger Weather past 2 weeks in Niamey, Niger

Now
81 °F

Clear.


Feels Like: 84 °F
Forecast: 78 / 101 °F
Wind: 3 mph from Southwest

Location: Niamey-Aero

Current Time: Aug 28, 2014 at 2:29:06 AM

Latest Report: Aug 28, 2014 at 2:00 AM


Visibility: 10 mi

Pressure: 29.95 "Hg

Humidity: 70%

Dew point: 70 °F

Location of NiameyLocation

Historic Weather in Niamey — Graph

°F

Niamey temperature yesterday

Maximum temperature yesterday: 91 °F (at 5:00 PM)
Minimum temperature yesterday: 75 °F (at 6:00 AM)
Average temperature yesterday: 82 °F

Past Weeks' High & Low Weather Summary

 TemperatureHumidityPressure
High97 °F (Aug 19, 4:00 PM)100% (Aug 14, 3:00 AM)30.01 "Hg (Aug 14, 3:00 AM)
Low70 °F (Aug 22, 3:00 PM)34% (Aug 25, 5:00 PM)29.77 "Hg (Aug 26, 3:00 AM)
Average82 °F73%29.90 "Hg
* Reported Midnight between Aug 12 and Aug 13 — Midnight between Aug 27 and Aug 28, Niamey, Weather by CustomWeather, © 2014

Note: Actual official high and low records may vary slightly from our data, if they occured in-between our weather recording intervals... More about our weather records

Advertising

Niamey weather history for previous 24 hours

 ConditionsComfort  
Time TempWeatherWind HumidityBarometerVisibility
12:00 AM
Aug 28
82 °FClear.3 mph66%29.98 "Hg10 mi
11:00 PM
Aug 27
84 °FClear.5 mph62%29.98 "Hg10 mi
10:00 PM84 °FClear.6 mph62%29.95 "Hg10 mi
9:00 PM86 °FClear.5 mph59%29.92 "Hg10 mi
8:00 PM88 °FClear.5 mph52%29.92 "Hg10 mi
6:00 PM90 °FScattered clouds.6 mph46%29.89 "HgN/A
5:00 PM91 °FScattered clouds.2 mph44%29.89 "HgN/A
3:00 PM90 °FScattered clouds.6 mph49%29.92 "HgN/A
2:00 PM88 °FPassing clouds.7 mph52%29.92 "HgN/A
1:00 PM86 °FScattered clouds.8 mph55%29.98 "HgN/A
12:00 PM84 °FPassing clouds.9 mph58%29.98 "HgN/A
11:00 AM82 °FPassing clouds.10 mph66%29.98 "HgN/A
10:00 AM81 °FPassing clouds.10 mph70%30.01 "HgN/A
9:00 AM77 °FPassing clouds.9 mph79%29.98 "HgN/A
8:00 AM77 °FSunny.8 mph79%29.95 "Hg10 mi
7:00 AM75 °FPassing clouds.6 mph83%29.95 "HgN/A
6:00 AM75 °FClear.7 mph78%29.95 "Hg10 mi
5:00 AM77 °FClear.9 mph69%29.95 "Hg10 mi
4:00 AM77 °FPassing clouds.7 mph74%29.92 "HgN/A
3:00 AM77 °FClear.5 mph79%29.92 "Hg10 mi
2:00 AM79 °FClear.5 mph74%29.95 "Hg10 mi
Weather by CustomWeather, © 2014

See weather overviewHow to use our weather pages